Location: Bothwell
(42.3833°S, 147.0000°E)
Time: 09:25:30
(UTC+10:00)

UNISAT 6 - Pass Details

Date: 07 August 2024
Orbit: 589 x 662 km, 97.7° (Epoch: 14 September)

Event Time Altitude Azimuth Distance (km) Brightness Sun altitude
Rises 05:56:39 0° 182° (S) 3,036 ? -14.8°
Reaches altitude 10° 05:59:20 10° 198° (SSW) 2,121 ? -14.3°
Maximum altitude 06:02:46 21° 245° (WSW) 1,515 ? -13.7°
Enters shadow 06:03:16 21° 254° (WSW) 1,529 ? -13.6°
